BRISAT

Last updated on Tue Sep 22 2026 00:03:13 GMT+0000 (Coordinated Universal Time)

1 41591U 16039A 26264.61623266 -.00000200 00000+0 00000+0 0 9992 2 41591 0.0189 216.4358 0002122 313.5932 202.8244 1.00271701 37575
UTC large
Height (km)
Speed (km/s)
/
Latitude / Longitude
Inclination (degrees)
Orbital Period (minutes)
Azimuth
Elevation
Range (km)
Doppler Factor

Next 0 passes for location: London (51.5072 / 0.1276)

No passes found over London.
BRISAT